Location: Brede
(50.9167°N, 0.6000°E)
Time: 21:23:21
(UTC+00:00)

A-11 Canister half - Pass Details

Date: 05 December 2020
Orbit: 1524 x 1684 km, 47.3° (Epoch: 23 January)

Event Time Altitude Azimuth Distance (km) Brightness Sun altitude
Exits shadow 04:45:52 23° 220° (SW) 3,043 10.2 -26.9°
Maximum altitude 04:52:27 54° 154° (SSE) 1,966 9.6 -25.9°
Drops below altitude 10° 05:02:05 10° 81° (E) 3,902 12.1 -24.4°
Sets 05:05:16 0° 77° (ENE) 4,872 12.8 -23.9°
